Location: Barrio Las Umbrías
(40.4173°N, 4.8685°W)
Time: 12:36:40
(UTC+00:00)

NOSS 2-2 (E) - Pass Details

Date: 17 August 2022
Orbit: 427 x 1770 km, 63.3° (Epoch: 22 September)

Event Time Altitude Azimuth Distance (km) Brightness Sun altitude
Rises 19:56:33 0° 196° (SSW) 2,534 6.6 -8.3°
Reaches altitude 10° 19:58:51 10° 187° (S) 1,575 5.5 -8.7°
Maximum altitude 20:01:57 35° 119° (ESE) 712 3.4 -9.2°
Drops below altitude 10° 20:04:58 10° 51° (NE) 1,538 5.4 -9.7°
Sets 20:07:11 0° 43° (NE) 2,462 6.5 -10.1°
